User: anonymous   Login
Location: Oshawa
(43.9000°N, 78.8670°W)
Time: 13:33:02
(UTC-05:00)
Language:

Explorer 7 - Orbit

View from above orbital plane
View from above orbital plane
View from above satellite
View from above satellite

Ground track
Ground track

The orbit data is extracted from the following two-line orbital elements,

1 00022U 59009A   15030.09002070  .00004737  00000-0  40386-3 0  1452
2 00022 050.2852 307.2996 0149665 323.2734 035.8028 14.91189955931482
Epoch (UTC): 30 January 2015 02:09:37
Eccentricity: 0.0149665
inclination: 50.2852°
perigee height: 490 km
apogee height: 698 km
right ascension of ascending node: 307.2996°
argument of perigee: 323.2734°
revolutions per day: 14.91189955
mean anomaly at epoch: 35.8028°
orbit number at epoch: 93148

The dashed part of the orbit path shows where the satellite is in the earth's shadow,  

DLR